Location: Arpaise
(41.0333°N, 14.7333°E)
Time: 08:14:05
(UTC+00:00)

Cosmos 1048 Rocket - Pass Details

Date: 05 July 2020
Orbit: 744 x 791 km, 74.0° (Epoch: 06 August)

Event Time Altitude Azimuth Distance (km) Brightness Sun altitude
Exits shadow 23:19:34 85° 167° (SSE) 786 3.9 -26.2°
Maximum altitude 23:19:42 87° 108° (ESE) 784 3.9 -26.2°
Drops below altitude 10° 23:24:59 10° 20° (NNE) 2,321 7.4 -26.1°
Sets 23:27:22 0° 20° (NNE) 3,245 8.5 -26.1°
